Terug naar catalogus

STARLINK-32634

ActiefCommunicatieVLEO
NORAD 62313·PAYLOAD·🇺🇸 United States

Gelanceerd Dec 13, 2024 vanaf Vandenberg Space Force Base

Loading…

Volgende Passages (komende 24 uur)

TLE

VersSource: CelesTrak SupGP

Epoch: Sep 14, 2026, 21:33 UTC

1 62313C 24239N   26257.89840278  .00016552  00000+0  48930-3 0  2575
2 62313  53.1606  19.6956 0001313  83.1621 113.3660 15.34365025    18

Volg STARLINK-32634 in realtime met AllMySat

Download on the App Store